Location: Unspecified
(0.0000°N, 0.0000°E)
Time: 19:50:29
(UTC+00:00)

THORAD DELTA 1 DEB - Pass Details

Date: 16 February 2026
Orbit: 1451 x 1738 km, 101.5° (Epoch: 9 March)

Event Time Altitude Azimuth Distance (km) Brightness Sun altitude
Rises 20:05:24 0° 157° (SSE) 4,723 ? -27.2°
Reaches altitude 10° 20:08:21 10° 154° (SSE) 3,703 ? -27.9°
Maximum altitude 20:16:50 64° 74° (ENE) 1,619 ? -29.9°
Drops below altitude 10° 20:24:59 10° 355° (N) 3,566 ? -31.9°
Sets 20:27:45 0° 352° (N) 4,537 ? -32.6°
